Starlink 3329

operational
NORAD ID: 50827 Int'l Des: 2022-001 Owner: SPXS Country: US Constellation: starlink
LEOCIRCULAR

About Starlink 3329

Description loading...

Live Position

Loading 3D Globe...

Upcoming Passes

Altitude History

Altitude vs Time

uPlot chart will show altitude changes over time

Two-Line Element Set

1 50827U 22001AA 26061.67023695 .00000455 00000-0 46677-4 0 9998
2 50827 53.2166 200.6329 0001337 88.5885 271.5260 15.08841669229346
Epoch: Mar 2, 2026 • Age: 32 hours

Current Status

Altitude 558.2 km
Velocity 7.58 km/s
Sub-Earth Point -50.85°S, 169.82°E
Launch Date Jan 6, 2022
Age 4.1 years
Type internet

Technical Details

Classification Payload
Mass 297.00 kg
Dry Mass 275.00 kg
Total Mass 297.00 kg
Length 0.20 m
Diameter 2.80 m
Span 9.00 m
Shape Box + pan
Manufacturer SPXS
Bus Type Starlink
Phase Status In Orbit
Owner/State SPXS/US

Large Constellations

Loading constellations...